Regional Weather Roundup
Issued by NWS

Home | Current Version | Previous Version | Graphics & Text | Print | Product List | Glossary On
Versions: 1 2 3 4 5 6 7 8 9 10 11 12 13 14 15 16 17 18 19 20 21 22 23 24 25 26 27 28 29 30 31 32 33 34 35 36 37 38 39 40 41 42 43 44 45 46 47 48 49
000
ASUS45 KBOU 290007
RWRCO

WEATHER ROUNDUP FOR COLORADO
NATIONAL WEATHER SERVICE DENVER/BOULDER CO
500 PM MST SUN DEC 28 2014

NOTE: "FAIR" INDICATES FEW OR NO CLOUDS BELOW 12000 FEET WITH NO
SIGNIFICANT WEATHER AND/OR OBSTRUCTIONS TO VISIBILITY.

COZ001>005-013-030-031-290100-
...NORTHWEST COLORADO...

CITY           SKY/WX    TMP DP  RH WIND       PRES   REMARKS
CRAIG          SNOW      22  19  89 SW8       29.94F VSB 1/2 WCI  12
HAYDEN         CLOUDY    18  14  86 CALM      29.93S VSB 3/4
MEEKER         CLOUDY    26  12  55 SW13G21   29.92S WCI  15
MOUNT WERNER   NOT AVBL
STEAMBOAT SPGS CLOUDY    14  12  90 CALM      29.92R
WALDEN         CLOUDY    16  10  79 S5        29.84F WCI   9
$$

COZ006>008-011-290100-
...WEST CENTRAL VALLEYS...

CITY           SKY/WX    TMP DP  RH WIND       PRES   REMARKS
GRAND JUNCTION CLEAR     23  15  71 NW5       30.03F WCI  17
MONTROSE       CLOUDY    30  12  47 W5        30.02S WCI  25
EAGLE          FLURRIES  23  14  68 W7        29.98S WCI  15
RIFLE          PTCLDY    21  12  68 S5        30.01F WCI  15
DELTA          PTCLDY    32   9  38 CALM      30.03S
NUCLA          MOCLDY    32  10  40 NW3       30.04S
$$

COZ017>023-064>068-290100-
...SOUTHWEST COLORADO...

CITY           SKY/WX    TMP DP  RH WIND       PRES   REMARKS
DURANGO        CLEAR     21  12  68 E6        30.04F WCI  13
CORTEZ         CLEAR     27  12  53 S6        30.05F WCI  20
PAGOSA SPRINGS PTCLDY    18  10  71 CALM      30.03S
TELLURIDE      MOCLDY    25   9  51 W8        29.97S WCI  16
WOLF CREEK PAS NOT AVBL
$$

COZ009-010-012-014-032>034-037-058>063-290100-
...CENTRAL COLORADO...

CITY           SKY/WX    TMP DP  RH WIND       PRES   REMARKS
ASPEN          CLOUDY    16  11  80 CALM      29.93S
BUENA VISTA    CLOUDY    20   8  58 NW6       29.89S WCI  12
COPPER MTN     SNOW       9   1  72 W20       29.79S VSB 1/2 WCI -11
BERTHOUD PASS  NOT AVBL
COTTONWOOD PAS CLOUDY    19   9  63 N6        29.84S WCI  11
GUNNISON       CLOUDY     7 -15  36 NE3       30.01F
KREMMLING      LGT SNOW  19  14  79 W6        29.90S WCI  11
LEADVILLE      LGT SNOW  11   6  81 NW9       29.83S WCI  -2
MONARCH PASS   FOG        5   1  85 W40G53    29.89F VSB 1/2 WCI -22
SALIDA         MOCLDY    28   9  46 W18G25    29.98S WCI  15
SUNLIGHT       CLOUDY   N/A N/A N/A S3        29.85S
WILKERSON PASS PTCLDY    10   5  79 SW6       29.83S WCI   1
$$

COZ069>075-290100-
...SAN LUIS VALLEY/SANGRE DE CRISTO MOUNTAINS...

CITY           SKY/WX    TMP DP  RH WIND       PRES   REMARKS
ALAMOSA        CLEAR     13   3  64 N6        29.95F WCI   4
LA VETA PASS   NOT AVBL
SAGUACHE       CLOUDY    10   3  72 CALM      29.97F
$$

COZ035-036-038>040-290100-
...NORTHERN COLORADO FRONT RANGE...

CITY           SKY/WX    TMP DP  RH WIND       PRES   REMARKS
DENVER INTL AP MOCLDY    21  15  78 NE7       29.87R WCI  12
DMNS CITY PARK   N/A     27  15  59 SE5       29.86R WCI  22
AURORA         PTCLDY    27  11  52 NE5       29.87R WCI  21
FRONT RANGE AP PTCLDY    25  19  80 NE6       29.87S WCI  18
ERIE MUNI ARPT   N/A     17  11  77 MISG      29.88R
BOULDER MUN AP CLEAR     19  12  73 N7        29.88R WCI  10
CENTENNIAL     PTCLDY    28  12  51 CALM      29.85R
BROOMFIELD     MOCLDY    32   9  37 NW12      29.84S WCI  23
FORT COLLINS   CLEAR     18   9  68 CALM      29.90R
LONGMONT       CLEAR     20  12  72 NW3       29.91R
$$

COZ041-046-047-076>085-087-088-290100-
...PIKES PEAK/PALMER DIVIDE AND SOUTHERN FOOTHILLS...

CITY           SKY/WX    TMP DP  RH WIND       PRES   REMARKS
COLO. SPRINGS  PTCLDY    36   5  27 NW23G33   29.84R
A. F. ACADEMY  CLEAR     33   4  29 NW14G22   29.84R WCI  23
ELLICOTT       NOT AVBL
FALCON         CLEAR     32   5  32 W12       29.85R WCI  23
FORT CARSON    CLEAR     36   7  29 W9        29.83R
LIMON          MOCLDY    24  18  77 NW3       29.87R
MONUMENT HILL  PTCLDY    23  12  63 N5        29.84R WCI  17
TRINIDAD       CLEAR     24  11  57 W6        29.87R WCI  17
$$

COZ042>045-048>051-090-091-290100-
...NORTHEAST COLORADO...

CITY           SKY/WX    TMP DP  RH WIND       PRES   REMARKS
GREELEY ARPT   PTCLDY     9   1  72 NW7       29.89R WCI  -3
AKRON          CLOUDY    18  10  71 CALM      29.89S
BURLINGTON     CLEAR     23  18  81 SE9       29.90R WCI  13
WRAY           CLEAR     23  16  74 CALM      29.95R
STERLING       CLOUDY    18  12  79 W3        29.92R
HOLYOKE        CLEAR     19  12  73 E3        29.94S
FORT MORGAN    CLOUDY    17  13  83 CALM      29.91R
$$

COZ086-089-092>099-290100-
...SOUTHEAST COLORADO...

CITY           SKY/WX    TMP DP  RH WIND       PRES   REMARKS
PUEBLO         CLEAR     41   7  24 W16G26    29.85R
LA JUNTA       CLEAR     30  21  69 NE6       29.87R WCI  24
LAMAR          CLEAR     28  18  66 E5        29.88S WCI  23
SPRINGFIELD      N/A     29  14  53 SE10      29.87R WCI  20
$$


USA.gov is the U.S. government's official web portal to all federal, state and local government web resources and services.